| time (UTC) | temp F | wind direction | speed MPH | gust MPH | rain 1hr in | rain 24hr in | rain mn in | humidity % | barometer mb |
| 20260506084009 | 47 | 0 | 0.0 | 1.0 | 0.00 | 0.01 | 0.00 | 61 | 1016.2 |
| 20260506083511 | 47 | 0 | 0.0 | 1.0 | 0.00 | 0.01 | 0.00 | 65 | 1016.3 |
| 20260506083029 | 46 | 0 | 0.0 | 0.0 | 0.00 | 0.01 | 0.00 | 67 | 1016.3 |
| 20260506082509 | 45 | 0 | 0.0 | 0.0 | 0.00 | 0.01 | 0.00 | 69 | 1016.4 |
| 20260506082012 | 44 | 0 | 0.0 | 0.0 | 0.00 | 0.01 | 0.00 | 71 | 1016.4 |
| 20260506081528 | 44 | 0 | 0.0 | 0.0 | 0.00 | 0.01 | 0.00 | 71 | 1016.4 |
| 20260506081016 | 43 | 0 | 0.0 | 0.0 | 0.00 | 0.01 | 0.00 | 71 | 1016.5 |
| 20260506080511 | 43 | 0 | 0.0 | 0.0 | 0.00 | 0.01 | 0.00 | 70 | 1016.6 |
| 20260506073510 | 40 | 0 | 0.0 | 0.0 | 0.00 | 0.04 | 0.00 | 74 | 1016.5 |
| 20260506073030 | 39 | 0 | 0.0 | 0.0 | 0.00 | 0.04 | 0.00 | 76 | 1016.6 |
| 20260506072517 | 38 | 0 | 0.0 | 0.0 | 0.00 | 0.04 | 0.00 | 78 | 1016.6 |
| 20260506072015 | 37 | 0 | 0.0 | 0.0 | 0.00 | 0.04 | 0.00 | 77 | 1016.6 |
| 20260506071527 | 37 | 0 | 0.0 | 0.0 | 0.00 | 0.04 | 0.00 | 78 | 1016.6 |
| 20260506071010 | 36 | 0 | 0.0 | 0.0 | 0.00 | 0.04 | 0.00 | 78 | 1016.6 |
| 20260506070509 | 36 | 0 | 0.0 | 0.0 | 0.00 | 0.04 | 0.00 | 80 | 1016.7 |
| 20260506062514 | 31 | 0 | 0.0 | 0.0 | 0.00 | 0.05 | 0.00 | 85 | 1016.7 |
| 20260506062010 | 31 | 0 | 0.0 | 0.0 | 0.00 | 0.05 | 0.00 | 85 | 1016.6 |
| 20260506061528 | 30 | 0 | 0.0 | 0.0 | 0.00 | 0.05 | 0.00 | 86 | 1016.6 |
| 20260506061016 | 30 | 0 | 0.0 | 0.0 | 0.00 | 0.05 | 0.00 | 86 | 1016.9 |
| 20260506060508 | 30 | 0 | 0.0 | 0.0 | 0.00 | 0.05 | 0.00 | 86 | 1016.9 |
| 20260506051012 | 26 | 0 | 0.0 | 0.0 | 0.00 | 0.05 | 0.00 | 89 | 1017.1 |
| 20260506050515 | 25 | 0 | 0.0 | 0.0 | 0.00 | 0.05 | 0.00 | 88 | 1017.3 |
| 20260506045009 | 25 | 0 | 0.0 | 0.0 | 0.00 | 0.05 | 0.00 | 88 | 1017.1 |
| 20260506044527 | 25 | 0 | 0.0 | 0.0 | 0.00 | 0.05 | 0.00 | 88 | 1017.2 |
| 20260506044013 | 25 | 0 | 0.0 | 0.0 | 0.00 | 0.05 | 0.00 | 87 | 1017.2 |
| 20260506043510 | 25 | 0 | 0.0 | 0.0 | 0.00 | 0.05 | 0.00 | 87 | 1017.2 |
| 20260506043027 | 24 | 0 | 0.0 | 0.0 | 0.00 | 0.05 | 0.00 | 88 | 1017.1 |
| 20260506042510 | 24 | 0 | 0.0 | 0.0 | 0.00 | 0.05 | 0.00 | 87 | 1017.3 |
| 20260506042017 | 24 | 0 | 0.0 | 0.0 | 0.00 | 0.05 | 0.00 | 87 | 1017.2 |
| 20260506041532 | 24 | 0 | 0.0 | 0.0 | 0.00 | 0.05 | 0.00 | 88 | 1017.2 |
| 20260506041009 | 24 | 0 | 0.0 | 0.0 | 0.00 | 0.05 | 0.00 | 88 | 1017.1 |
| 20260506040520 | 24 | 0 | 0.0 | 0.0 | 0.00 | 0.05 | 0.00 | 87 | 1017.1 |
| 20260506040029 | 24 | 0 | 0.0 | 0.0 | 0.00 | 0.05 | 0.00 | 87 | 1017.1 |
| 20260506035508 | 24 | 0 | 0.0 | 0.0 | 0.00 | 0.05 | 0.00 | 87 | 1017.2 |
| 20260506035008 | 24 | 0 | 0.0 | 0.0 | 0.00 | 0.05 | 0.00 | 87 | 1017.1 |
| 20260506034530 | 24 | 0 | 0.0 | 0.0 | 0.00 | 0.05 | 0.00 | 86 | 1017.2 |
| 20260506034009 | 24 | 0 | 0.0 | 0.0 | 0.00 | 0.05 | 0.00 | 87 | 1017.2 |
| 20260506033509 | 24 | 0 | 0.0 | 0.0 | 0.00 | 0.05 | 0.00 | 86 | 1017.1 |
| 20260506033031 | 24 | 0 | 0.0 | 0.0 | 0.00 | 0.05 | 0.00 | 86 | 1017.2 |
| 20260506032513 | 25 | 0 | 0.0 | 0.0 | 0.00 | 0.05 | 0.00 | 86 | 1017.3 |
| 20260506032010 | 25 | 0 | 0.0 | 0.0 | 0.00 | 0.05 | 0.00 | 86 | 1017.3 |
| 20260506031529 | 25 | 0 | 0.0 | 0.0 | 0.00 | 0.05 | 0.00 | 86 | 1017.3 |
| 20260506031009 | 25 | 0 | 0.0 | 0.0 | 0.00 | 0.05 | 0.00 | 87 | 1017.3 |
| 20260506030513 | 25 | 0 | 0.0 | 0.0 | 0.00 | 0.05 | 0.00 | 86 | 1017.3 |
| 20260506030033 | 25 | 0 | 0.0 | 0.0 | 0.00 | 0.05 | 0.00 | 86 | 1017.3 |
| 20260506025514 | 25 | 0 | 0.0 | 0.0 | 0.00 | 0.05 | 0.00 | 86 | 1017.3 |
| 20260506025009 | 25 | 0 | 0.0 | 0.0 | 0.00 | 0.05 | 0.00 | 86 | 1017.3 |
| 20260506024532 | 25 | 0 | 0.0 | 0.0 | 0.00 | 0.05 | 0.00 | 86 | 1017.3 |
| 20260506024013 | 25 | 0 | 0.0 | 0.0 | 0.00 | 0.05 | 0.00 | 86 | 1017.4 |
| 20260506023513 | 26 | 0 | 0.0 | 0.0 | 0.00 | 0.05 | 0.00 | 86 | 1017.3 |
| 20260506023029 | 26 | 0 | 0.0 | 0.0 | 0.00 | 0.05 | 0.00 | 86 | 1017.4 |
| 20260506022511 | 26 | 0 | 0.0 | 0.0 | 0.00 | 0.05 | 0.00 | 87 | 1017.4 |
| 20260506022007 | 26 | 0 | 0.0 | 0.0 | 0.00 | 0.05 | 0.00 | 87 | 1017.3 |
| 20260506021529 | 26 | 0 | 0.0 | 0.0 | 0.00 | 0.05 | 0.00 | 87 | 1017.4 |
| 20260506021011 | 26 | 0 | 0.0 | 0.0 | 0.00 | 0.05 | 0.00 | 86 | 1017.4 |
| 20260506020513 | 26 | 0 | 0.0 | 0.0 | 0.00 | 0.05 | 0.00 | 85 | 1017.5 |
| 20260506020030 | 26 | 0 | 0.0 | 0.0 | 0.00 | 0.05 | 0.00 | 85 | 1017.6 |
| 20260506015508 | 26 | 0 | 0.0 | 0.0 | 0.00 | 0.05 | 0.00 | 85 | 1017.6 |
| 20260506015010 | 26 | 0 | 0.0 | 0.0 | 0.00 | 0.05 | 0.00 | 85 | 1017.6 |
| 20260506014543 | 26 | 0 | 0.0 | 0.0 | 0.00 | 0.05 | 0.00 | 85 | 1017.6 |
| 20260506014007 | 26 | 0 | 0.0 | 0.0 | 0.00 | 0.05 | 0.00 | 85 | 1017.6 |
| 20260506013509 | 26 | 0 | 0.0 | 0.0 | 0.00 | 0.05 | 0.00 | 86 | 1017.8 |
| 20260506013030 | 26 | 0 | 0.0 | 0.0 | 0.00 | 0.05 | 0.00 | 85 | 1017.8 |
| 20260506012509 | 27 | 0 | 0.0 | 0.0 | 0.00 | 0.05 | 0.00 | 85 | 1017.8 |
| 20260506012011 | 27 | 0 | 0.0 | 0.0 | 0.00 | 0.05 | 0.00 | 86 | 1017.8 |
| 20260506011531 | 27 | 0 | 0.0 | 0.0 | 0.00 | 0.05 | 0.00 | 85 | 1017.8 |
| 20260506011011 | 27 | 0 | 0.0 | 0.0 | 0.00 | 0.05 | 0.00 | 84 | 1017.8 |
| 20260506010510 | 27 | 0 | 0.0 | 0.0 | 0.00 | 0.05 | 0.00 | 84 | 1017.9 |
| 20260506010028 | 27 | 0 | 0.0 | 0.0 | 0.00 | 0.05 | 0.00 | 84 | 1017.8 |
| 20260506005509 | 27 | 0 | 0.0 | 0.0 | 0.00 | 0.05 | 0.00 | 85 | 1017.8 |
| 20260506005015 | 28 | 0 | 0.0 | 0.0 | 0.00 | 0.05 | 0.00 | 92 | 1017.8 |
| 20260506004537 | 28 | 0 | 0.0 | 0.0 | 0.00 | 0.05 | 0.00 | 86 | 1017.8 |
| 20260506004009 | 28 | 0 | 0.0 | 0.0 | 0.00 | 0.05 | 0.00 | 86 | 1017.8 |
| 20260506003513 | 28 | 0 | 0.0 | 0.0 | 0.00 | 0.05 | 0.00 | 85 | 1017.8 |
| 20260506003028 | 28 | 0 | 0.0 | 0.0 | 0.00 | 0.05 | 0.00 | 85 | 1017.8 |
| 20260506002510 | 28 | 0 | 0.0 | 0.0 | 0.00 | 0.05 | 0.00 | 85 | 1017.9 |
| 20260506002013 | 28 | 0 | 0.0 | 0.0 | 0.00 | 0.05 | 0.00 | 84 | 1017.8 |
| 20260506001528 | 28 | 0 | 0.0 | 0.0 | 0.00 | 0.05 | 0.00 | 84 | 1018.1 |
| 20260506001010 | 28 | 0 | 0.0 | 0.0 | 0.00 | 0.05 | 0.00 | 84 | 1018.1 |
| 20260506000510 | 28 | 0 | 0.0 | 0.0 | 0.00 | 0.05 | 0.00 | 85 | 1018.1 |
| 20260506000036 | 28 | 0 | 0.0 | 0.0 | 0.00 | 0.05 | 0.00 | 85 | 1018.2 |
| 20260505235514 | 28 | 0 | 0.0 | 0.0 | 0.00 | 0.05 | 0.00 | 84 | 1018.2 |
| 20260505235010 | 28 | 0 | 0.0 | 0.0 | 0.00 | 0.05 | 0.00 | 84 | 1018.1 |
| 20260505234528 | 28 | 0 | 0.0 | 0.0 | 0.00 | 0.05 | 0.00 | 84 | 1018.0 |
| 20260505234010 | 28 | 0 | 0.0 | 0.0 | 0.00 | 0.05 | 0.00 | 84 | 1018.1 |
| 20260505233516 | 28 | 0 | 0.0 | 0.0 | 0.00 | 0.05 | 0.00 | 84 | 1018.1 |
| 20260505233030 | 29 | 0 | 0.0 | 0.0 | 0.00 | 0.05 | 0.00 | 83 | 1018.2 |
| 20260505232512 | 29 | 0 | 0.0 | 0.0 | 0.00 | 0.05 | 0.00 | 83 | 1018.3 |
| 20260505232010 | 29 | 0 | 0.0 | 0.0 | 0.00 | 0.05 | 0.00 | 83 | 1018.2 |
| 20260505231531 | 29 | 0 | 0.0 | 0.0 | 0.00 | 0.05 | 0.00 | 83 | 1018.2 |
| 20260505231010 | 29 | 0 | 0.0 | 0.0 | 0.00 | 0.05 | 0.00 | 83 | 1018.2 |
| 20260505230514 | 29 | 0 | 0.0 | 0.0 | 0.00 | 0.05 | 0.00 | 82 | 1018.2 |
| 20260505230033 | 29 | 0 | 0.0 | 0.0 | 0.00 | 0.05 | 0.00 | 82 | 1018.4 |
| 20260505225513 | 30 | 0 | 0.0 | 0.0 | 0.00 | 0.05 | 0.05 | 82 | 1018.4 |
| 20260505225010 | 30 | 0 | 0.0 | 0.0 | 0.00 | 0.05 | 0.05 | 82 | 1018.3 |
| 20260505224536 | 30 | 0 | 0.0 | 0.0 | 0.00 | 0.05 | 0.05 | 82 | 1018.3 |
| 20260505224013 | 30 | 0 | 0.0 | 0.0 | 0.00 | 0.05 | 0.05 | 83 | 1018.3 |
| 20260505223517 | 30 | 0 | 0.0 | 0.0 | 0.00 | 0.05 | 0.05 | 83 | 1018.2 |
| 20260505223039 | 30 | 0 | 0.0 | 0.0 | 0.00 | 0.05 | 0.05 | 83 | 1018.3 |
| 20260505222510 | 30 | 0 | 0.0 | 0.0 | 0.00 | 0.05 | 0.05 | 82 | 1018.3 |
| 20260505222009 | 30 | 0 | 0.0 | 0.0 | 0.00 | 0.05 | 0.05 | 81 | 1018.2 |
| 20260505221530 | 30 | 0 | 0.0 | 0.0 | 0.00 | 0.05 | 0.05 | 81 | 1018.3 |
| 20260505221008 | 31 | 0 | 0.0 | 0.0 | 0.00 | 0.05 | 0.05 | 81 | 1018.3 |
| 20260505220510 | 31 | 0 | 0.0 | 0.0 | 0.00 | 0.05 | 0.05 | 82 | 1018.4 |
| 20260505220037 | 31 | 0 | 0.0 | 0.0 | 0.00 | 0.05 | 0.05 | 81 | 1018.4 |
| 20260505215512 | 31 | 0 | 0.0 | 0.0 | 0.00 | 0.06 | 0.05 | 81 | 1018.4 |
| 20260505215010 | 31 | 0 | 0.0 | 0.0 | 0.00 | 0.06 | 0.05 | 80 | 1018.3 |
| 20260505214547 | 31 | 0 | 0.0 | 0.0 | 0.00 | 0.06 | 0.05 | 81 | 1018.2 |
| 20260505214010 | 32 | 0 | 0.0 | 0.0 | 0.00 | 0.06 | 0.05 | 80 | 1018.2 |
| 20260505213510 | 32 | 0 | 0.0 | 0.0 | 0.00 | 0.06 | 0.05 | 80 | 1018.2 |
| 20260505213048 | 32 | 0 | 0.0 | 0.0 | 0.00 | 0.06 | 0.05 | 80 | 1018.2 |
| 20260505212510 | 32 | 0 | 0.0 | 0.0 | 0.00 | 0.06 | 0.05 | 80 | 1018.1 |
| 20260505212012 | 32 | 0 | 0.0 | 0.0 | 0.00 | 0.06 | 0.05 | 80 | 1018.2 |
| 20260505211530 | 32 | 0 | 0.0 | 0.0 | 0.00 | 0.06 | 0.05 | 80 | 1018.2 |
| 20260505211010 | 33 | 0 | 0.0 | 0.0 | 0.00 | 0.06 | 0.05 | 80 | 1018.2 |
| 20260505210508 | 33 | 0 | 0.0 | 0.0 | 0.00 | 0.06 | 0.05 | 80 | 1018.1 |
| 20260505210031 | 33 | 0 | 0.0 | 0.0 | 0.00 | 0.06 | 0.05 | 80 | 1018.1 |
| 20260505205515 | 33 | 0 | 0.0 | 0.0 | 0.00 | 0.06 | 0.05 | 80 | 1018.1 |
| 20260505205016 | 33 | 0 | 0.0 | 0.0 | 0.00 | 0.06 | 0.05 | 79 | 1018.1 |
| 20260505204532 | 33 | 0 | 0.0 | 0.0 | 0.00 | 0.06 | 0.05 | 79 | 1018.0 |
| 20260505204010 | 33 | 0 | 0.0 | 0.0 | 0.00 | 0.06 | 0.05 | 78 | 1018.1 |
| 20260505203514 | 33 | 0 | 0.0 | 0.0 | 0.00 | 0.06 | 0.05 | 77 | 1018.1 |
| 20260505203027 | 34 | 0 | 0.0 | 0.0 | 0.00 | 0.06 | 0.05 | 77 | 1018.0 |
| 20260505202509 | 34 | 0 | 0.0 | 1.0 | 0.00 | 0.06 | 0.05 | 76 | 1017.9 |
| 20260505202011 | 35 | 0 | 0.0 | 1.0 | 0.00 | 0.06 | 0.05 | 76 | 1018.0 |
| 20260505201543 | 35 | 0 | 0.0 | 3.0 | 0.00 | 0.06 | 0.05 | 75 | 1018.0 |
| 20260505201008 | 36 | 0 | 0.0 | 3.0 | 0.00 | 0.06 | 0.05 | 75 | 1017.9 |
| 20260505200512 | 36 | 0 | 0.0 | 3.0 | 0.00 | 0.06 | 0.05 | 73 | 1017.8 |
| 20260505200031 | 37 | 0 | 0.0 | 0.0 | 0.00 | 0.06 | 0.05 | 72 | 1017.8 |
| 20260505195511 | 38 | 0 | 0.0 | 0.0 | 0.00 | 0.06 | 0.05 | 70 | 1018.0 |
| 20260505195010 | 39 | 0 | 0.0 | 0.0 | 0.00 | 0.06 | 0.05 | 69 | 1017.8 |
| 20260505194530 | 40 | 0 | 0.0 | 0.0 | 0.00 | 0.06 | 0.05 | 69 | 1017.8 |
| 20260505194017 | 40 | 0 | 0.0 | 0.0 | 0.00 | 0.06 | 0.05 | 68 | 1017.8 |
| 20260505193509 | 41 | 0 | 0.0 | 0.0 | 0.00 | 0.06 | 0.05 | 67 | 1017.7 |
| 20260505193042 | 41 | 0 | 0.0 | 0.0 | 0.00 | 0.06 | 0.05 | 67 | 1017.7 |
| 20260505192511 | 42 | 0 | 0.0 | 1.0 | 0.00 | 0.06 | 0.05 | 66 | 1017.7 |
| 20260505192009 | 42 | 0 | 0.0 | 2.0 | 0.00 | 0.06 | 0.05 | 65 | 1017.6 |
| 20260505191527 | 42 | 0 | 0.0 | 2.0 | 0.00 | 0.06 | 0.05 | 64 | 1017.6 |
| 20260505191014 | 43 | 0 | 0.0 | 4.0 | 0.00 | 0.06 | 0.05 | 64 | 1017.5 |
| 20260505190507 | 43 | 0 | 0.0 | 8.0 | 0.00 | 0.06 | 0.05 | 63 | 1017.5 |
| 20260505190032 | 44 | 0 | 0.0 | 8.0 | 0.00 | 0.06 | 0.05 | 62 | 1017.5 |
| 20260505185515 | 44 | 0 | 0.0 | 5.0 | 0.00 | 0.07 | 0.05 | 60 | 1017.5 |
| 20260505185009 | 44 | 0 | 0.0 | 4.0 | 0.00 | 0.07 | 0.05 | 59 | 1017.6 |
| 20260505184530 | 44 | 0 | 0.0 | 3.0 | 0.00 | 0.07 | 0.05 | 58 | 1017.5 |
| 20260505184010 | 45 | 0 | 0.0 | 2.0 | 0.00 | 0.07 | 0.05 | 58 | 1017.5 |
| 20260505183510 | 45 | 0 | 0.0 | 3.0 | 0.00 | 0.07 | 0.05 | 57 | 1017.5 |
| 20260505183044 | 45 | 0 | 0.0 | 3.0 | 0.00 | 0.07 | 0.05 | 56 | 1017.6 |
| 20260505182509 | 45 | 0 | 0.0 | 8.0 | 0.00 | 0.07 | 0.05 | 56 | 1017.4 |
| 20260505182016 | 45 | 0 | 0.0 | 8.0 | 0.00 | 0.07 | 0.05 | 55 | 1017.4 |
| 20260505181530 | 46 | 0 | 0.0 | 8.0 | 0.00 | 0.07 | 0.05 | 55 | 1017.4 |
| 20260505181016 | 46 | 333 | 0.0 | 5.0 | 0.00 | 0.07 | 0.05 | 54 | 1017.4 |
| 20260505180510 | 46 | 352 | 0.0 | 6.0 | 0.00 | 0.07 | 0.05 | 54 | 1017.4 |
| 20260505180035 | 46 | 350 | 0.0 | 7.0 | 0.00 | 0.07 | 0.05 | 53 | 1017.4 |
| 20260505175512 | 46 | 0 | 0.0 | 7.0 | 0.00 | 0.07 | 0.05 | 55 | 1017.4 |
| 20260505175009 | 47 | 74 | 2.0 | 7.0 | 0.00 | 0.07 | 0.05 | 53 | 1017.4 |
| 20260505174536 | 47 | 67 | 1.0 | 5.0 | 0.00 | 0.07 | 0.05 | 52 | 1017.4 |
| 20260505174010 | 47 | 0 | 0.0 | 4.0 | 0.00 | 0.07 | 0.05 | 52 | 1017.4 |
| 20260505173509 | 47 | 0 | 0.0 | 5.0 | 0.00 | 0.07 | 0.05 | 52 | 1017.4 |
| 20260505173036 | 47 | 323 | 1.0 | 5.0 | 0.00 | 0.07 | 0.05 | 52 | 1017.4 |
| 20260505172508 | 47 | 80 | 1.0 | 5.0 | 0.00 | 0.07 | 0.05 | 50 | 1017.4 |
| 20260505172016 | 46 | 0 | 0.0 | 4.0 | 0.00 | 0.07 | 0.05 | 52 | 1017.5 |
| 20260505171533 | 46 | 0 | 0.0 | 5.0 | 0.00 | 0.07 | 0.05 | 52 | 1017.4 |
| 20260505171011 | 46 | 0 | 0.0 | 5.0 | 0.00 | 0.07 | 0.05 | 53 | 1017.4 |
| 20260505170516 | 46 | 0 | 0.0 | 4.0 | 0.00 | 0.07 | 0.05 | 55 | 1017.4 |
| 20260505170030 | 46 | 59 | 0.0 | 12.0 | 0.00 | 0.07 | 0.05 | 54 | 1017.4 |
| 20260505165512 | 46 | 0 | 0.0 | 12.0 | 0.00 | 0.07 | 0.05 | 52 | 1017.4 |
| 20260505165100 | 46 | 0 | 0.0 | 3.0 | 0.00 | 0.07 | 0.05 | 53 | 1017.4 |
| 20260505164535 | 46 | 0 | 0.0 | 9.0 | 0.00 | 0.07 | 0.05 | 52 | 1017.3 |
| 20260505164008 | 46 | 0 | 0.0 | 9.0 | 0.00 | 0.07 | 0.05 | 53 | 1017.4 |
| 20260505163508 | 46 | 349 | 1.0 | 9.0 | 0.00 | 0.07 | 0.05 | 52 | 1017.5 |
| 20260505163030 | 46 | 37 | 1.0 | 5.0 | 0.00 | 0.07 | 0.05 | 54 | 1017.4 |
| 20260505162508 | 46 | 0 | 0.0 | 3.0 | 0.00 | 0.07 | 0.05 | 55 | 1017.5 |
| 20260505162007 | 46 | 0 | 0.0 | 5.0 | 0.00 | 0.07 | 0.05 | 57 | 1017.5 |
| 20260505161528 | 46 | 0 | 0.0 | 5.0 | 0.00 | 0.07 | 0.05 | 60 | 1017.5 |
| 20260505161008 | 46 | 91 | 1.0 | 6.0 | 0.00 | 0.07 | 0.05 | 58 | 1017.5 |
| 20260505160511 | 46 | 5 | 0.0 | 8.0 | 0.00 | 0.07 | 0.05 | 58 | 1017.5 |
| 20260505153031 | 45 | 0 | 0.0 | 8.0 | 0.00 | 0.07 | 0.05 | 57 | 1017.6 |
| 20260505152512 | 46 | 319 | 1.0 | 8.0 | 0.00 | 0.07 | 0.05 | 56 | 1017.6 |
| 20260505152018 | 46 | 0 | 0.0 | 8.0 | 0.00 | 0.07 | 0.05 | 58 | 1017.6 |
| 20260505151528 | 46 | 0 | 0.0 | 7.0 | 0.00 | 0.07 | 0.05 | 57 | 1017.6 |
| 20260505151013 | 46 | 0 | 0.0 | 5.0 | 0.00 | 0.07 | 0.05 | 58 | 1017.6 |
| 20260505150517 | 46 | 0 | 0.0 | 4.0 | 0.00 | 0.07 | 0.05 | 58 | 1017.6 |
| 20260505140514 | 45 | 0 | 0.0 | 10.0 | 0.00 | 0.07 | 0.05 | 64 | 1017.4 |
| 20260505125007 | 46 | 0 | 0.0 | 5.0 | 0.00 | 0.07 | 0.05 | 66 | 1017.2 |
| 20260505124528 | 46 | 60 | 1.0 | 7.0 | 0.00 | 0.07 | 0.05 | 68 | 1017.2 |
| 20260505124011 | 46 | 0 | 2.0 | 7.0 | 0.00 | 0.07 | 0.05 | 67 | 1017.2 |
| 20260505123511 | 46 | 0 | 0.0 | 4.0 | 0.00 | 0.07 | 0.05 | 68 | 1017.1 |
| 20260505123044 | 46 | 0 | 0.0 | 5.0 | 0.00 | 0.07 | 0.05 | 74 | 1017.2 |
| 20260505122508 | 45 | 0 | 1.0 | 5.0 | 0.00 | 0.07 | 0.05 | 73 | 1017.3 |
| 20260505122009 | 45 | 0 | 0.0 | 8.0 | 0.00 | 0.07 | 0.05 | 74 | 1017.5 |
| 20260505121534 | 44 | 0 | 1.0 | 9.0 | 0.00 | 0.07 | 0.05 | 76 | 1017.5 |
| 20260505121011 | 44 | 0 | 1.0 | 9.0 | 0.00 | 0.07 | 0.05 | 74 | 1017.4 |
| 20260505120515 | 44 | 0 | 1.0 | 8.0 | 0.00 | 0.07 | 0.05 | 75 | 1017.5 |
| 20260505120041 | 44 | 82 | 0.0 | 12.0 | 0.00 | 0.07 | 0.05 | 73 | 1017.5 |
| 20260505115512 | 45 | 305 | 2.0 | 12.0 | 0.00 | 0.07 | 0.05 | 70 | 1017.3 |
| 20260505115016 | 46 | 0 | 2.0 | 12.0 | 0.00 | 0.07 | 0.05 | 71 | 1017.2 |
| 20260505114541 | 46 | 0 | 0.0 | 12.0 | 0.00 | 0.07 | 0.05 | 68 | 1017.1 |
| 20260505114010 | 46 | 32 | 0.0 | 12.0 | 0.00 | 0.07 | 0.05 | 70 | 1017.2 |
| 20260505113508 | 46 | 339 | 1.0 | 8.0 | 0.00 | 0.07 | 0.05 | 70 | 1017.1 |
| 20260505113029 | 46 | 342 | 1.0 | 9.0 | 0.00 | 0.07 | 0.05 | 73 | 1017.2 |
| 20260505112511 | 45 | 74 | 0.0 | 9.0 | 0.00 | 0.07 | 0.05 | 74 | 1017.2 |
| 20260505112011 | 45 | 73 | 0.0 | 8.0 | 0.00 | 0.07 | 0.05 | 77 | 1017.2 |
| 20260505111528 | 43 | 0 | 1.0 | 9.0 | 0.00 | 0.07 | 0.05 | 77 | 1017.2 |
| 20260505111011 | 43 | 0 | 2.0 | 9.0 | 0.00 | 0.07 | 0.05 | 78 | 1017.2 |
| 20260505110511 | 42 | 83 | 0.0 | 5.0 | 0.00 | 0.07 | 0.05 | 81 | 1017.3 |
| 20260505102010 | 43 | 0 | 0.0 | 12.0 | 0.01 | 0.07 | 0.05 | 73 | 1017.1 |
| 20260505101526 | 43 | 280 | 0.0 | 11.0 | 0.01 | 0.07 | 0.05 | 72 | 1017.1 |
| 20260505101009 | 43 | 341 | 2.0 | 11.0 | 0.01 | 0.07 | 0.05 | 73 | 1016.9 |
| 20260505100512 | 43 | 336 | 2.0 | 11.0 | 0.01 | 0.07 | 0.05 | 73 | 1017.1 |
| 20260505100031 | 44 | 326 | 1.0 | 11.0 | 0.01 | 0.07 | 0.05 | 75 | 1017.0 |
| 20260505095510 | 44 | 34 | 1.0 | 8.0 | 0.01 | 0.07 | 0.05 | 78 | 1016.9 |
| 20260505095015 | 43 | 0 | 1.0 | 6.0 | 0.01 | 0.07 | 0.05 | 82 | 1016.7 |
| 20260505094530 | 42 | 0 | 0.0 | 4.0 | 0.00 | 0.06 | 0.04 | 84 | 1016.9 |
| 20260505094010 | 42 | 0 | 0.0 | 13.0 | 0.00 | 0.06 | 0.04 | 81 | 1016.8 |
| 20260505093511 | 42 | 59 | 0.0 | 13.0 | 0.00 | 0.06 | 0.04 | 80 | 1016.8 |
| 20260505093035 | 42 | 350 | 4.0 | 13.0 | 0.00 | 0.06 | 0.04 | 78 | 1016.8 |
| 20260505092512 | 43 | 0 | 2.0 | 10.0 | 0.00 | 0.06 | 0.04 | 77 | 1016.6 |
| 20260505092013 | 43 | 348 | 0.0 | 8.0 | 0.00 | 0.06 | 0.04 | 77 | 1016.7 |
| 20260505091540 | 42 | 0 | 0.0 | 8.0 | 0.00 | 0.06 | 0.04 | 78 | 1016.6 |
| 20260505091012 | 42 | 62 | 1.0 | 8.0 | 0.00 | 0.06 | 0.04 | 79 | 1016.6 |
| 20260505090509 | 42 | 352 | 0.0 | 10.0 | 0.00 | 0.06 | 0.04 | 80 | 1016.6 |
| 20260505090043 | 42 | 0 | 1.0 | 10.0 | 0.00 | 0.06 | 0.04 | 81 | 1016.4 |
| 20260505085510 | 42 | 349 | 1.0 | 10.0 | 0.00 | 0.06 | 0.04 | 80 | 1016.4 |
| 20260505085012 | 42 | 69 | 1.0 | 11.0 | 0.00 | 0.06 | 0.04 | 81 | 1016.2 |
| 20260505084528 | 41 | 57 | 2.0 | 14.0 | 0.01 | 0.06 | 0.04 | 81 | 1016.2 |